Back to catalog

STARLINK-34116

AliveCommunicationsVLEO
NORAD 63890·PAYLOAD·🇺🇸 United States

Launched May 10, 2025 from Cape Canaveral Space Force Station

Loading…

Next Passes (next 24 hours)

TLE

FreshSource: CelesTrak SupGP

Epoch: Sep 14, 2026, 21:24 UTC

1 63890C 25095A   26257.89215278  .00001599  00000+0  57916-4 0  2573
2 63890  42.9993 187.8688 0001308 258.3544  40.8164 15.27578096    17

Track STARLINK-34116 in real time with AllMySat

Download on the App Store